Regional Weather Roundup
Issued by NWS

Home | Current Version | Previous Version | Graphics & Text | Print | Product List | Glossary On
Versions: 1 2 3 4 5 6 7 8 9 10 11 12 13 14 15 16 17 18 19 20 21 22 23 24 25 26 27 28 29 30 31 32 33 34 35 36 37 38 39 40 41 42 43 44 45 46 47 48 49 50
000
ASUS43 KLMK 290110
RWRKY
KENTUCKY REGIONAL WEATHER ROUNDUP
NATIONAL WEATHER SERVICE LOUISVILLE KY
900 PM EDT WED SEP 28 2016

NOTE "FAIR" INDICATES FEW OR NO CLOUDS BELOW 12,000 FEET
WITH NO SIGNIFICANT WEATHER AND/OR OBSTRUCTIONS TO VISIBILITY.

KYZ001>023-026-027-061>063-070>075-290200-
WESTERN AND SOUTH CENTRAL KENTUCKY

CITY           SKY/WX    TMP DP  RH WIND       PRES   REMARKS
PADUCAH        CLEAR     60  45  57 N9        30.05R
HENDERSON      CLEAR     57  43  58 NW9       30.03R
OWENSBORO      CLEAR    N/A N/A N/A NW9G16    29.99S
HOPKINSVILLE   CLEAR     62  47  59 N10G17    30.01R
BOWLING GREEN  CLEAR     62  53  72 NW5       29.99R
GLASGOW        CLOUDY   N/A N/A N/A CALM      29.98R HAZE
$$

KYZ024-025-028>034-038-045-046-053-290200-
NORTH CENTRAL KENTUCKY

CITY           SKY/WX    TMP DP  RH WIND       PRES   REMARKS
LOUISVILLE/SDF PTCLDY    59  51  75 NW8       29.97R
LOUISVILLE/LOU CLEAR     58  51  78 N3        29.97R
FORT KNOX      MOCLDY    55  51  87 W2        29.97R
$$

KYZ035>037-039>044-047>052-055>060-089>105-290200-
NORTHEAST KENTUCKY

CITY           SKY/WX    TMP DP  RH WIND       PRES   REMARKS
LEXINGTON      MOCLDY    57  55  93 SW7       29.97R
COVINGTON      PTCLDY    52  52 100 SW3       29.94R
FRANKFORT      MOCLDY    57  52  83 NW3       29.96R
$$

KYZ054-064>069-076>088-106>120-290200-
SOUTHEAST KENTUCKY

CITY           SKY/WX    TMP DP  RH WIND       PRES   REMARKS
JACKSON        LGT RAIN  58  55  90 CALM      29.98R
LONDON         LGT RAIN  61  54  77 NW6       29.98R
SOMERSET       RAIN      54  52  94 CALM      30.00R
MIDDLESBORO    CLOUDY    66  54  65 CALM      29.97R
MONTICELLO     LGT RAIN  56  50  80 N15       30.00R
$$




USA.gov is the U.S. government's official web portal to all federal, state and local government web resources and services.